格洛纳斯-759 COSMOS 2235 [GLONASS]

导读

COSMOS 2235是独联体(CIS)发射的GLONASS(格洛纳斯)导航卫星,于1993年2月17日升空,属于俄罗斯全球卫星导航系统的组网卫星。GLONASS是全球第二个投入运行的全球卫星导航系统,采用中圆地球轨道,卫星轨道高度约19100千米,倾角64.8°,运行周期约11小时15分钟,可为全球提供全天候定位、导航与授时服务,在高纬度地区拥有独特的覆盖优势。该卫星为GLONASS系统早期组网与系统正式投入运行提供了重要支撑。

基本信息
目录编号:
22514
目录名称:
COSMOS 2235 (GLONASS)
国际标识:
1993-010C
轨道中心:
EARTH
卫星名称:
格洛纳斯-759
卫星全名:
格洛纳斯-759 COSMOS 2235 [GLONASS]
卫星状态:
在轨 (已飞行12213 天)
发射日期:
1993-02-17 UTC
国别 :
俄罗斯(独联体) (CIS)
星等 :
--
轨道信息
数据来源 国际轨道数据
星历时间: 2026-07-27T22:32:21+0800
7小时前
查看轨道信息
半长轴: 25507.977km
偏心率: 0.0007859
轨道倾角: 64.939°
近地点辐角 206.868°
升交点赤经 68.921°
平近点角 161.995°
近地点: 19109.793km
远地点: 19149.887km
周期: 675.731分钟
每日圈数: 2.131026
详细信息
平衡模式:
三轴稳定
覆盖范围:
全球
运营商:
列舍特涅夫卫星信息系统
运营商所在国:
俄罗斯
制造商(研发单位):
列舍特涅夫卫星信息系统
制造商所在国:
俄罗斯
使用方式:
暂无
卫星简介
格洛纳斯(GLONASS )是苏联/俄罗斯研制卫星导航系统。标准配置为24颗卫星,其中18颗卫星就能保证该系统为俄罗斯境内用户提供全部服务。该卫星已退役。
2D轨道图
3D轨道图
轨道高度分析图
轨道倾角分析图
轨道综合分析图
查看轨道综合分析图